Weather History for Peru, IL

Change the Weather History Date:

Friday, June 28, 2013

  Actual Average Record
Temperature  
Mean Temperature 73 °F -  
Max Temperature 82 °F 85 °F 96 °F (2012)
Min Temperature 64 °F 61 °F 46 °F (1992)
Cooling Degree Days 8    
Growing Degree Days 23 (Base 50)    
Moisture  
Dew Point 61 °F    
Average Humidity 65    
Maximum Humidity 83    
Minimum Humidity 44    
Precipitation  
Precipitation 0.01 in - - ()
Sea Level Pressure  
Sea Level Pressure 29.70 in    
Wind  
Wind Speed 11 mph (NW)    
Max Wind Speed 20 mph    
Max Gust Speed 30 mph    
Visibility 10 miles    
Events Thunderstorm    
Averages and records for this station are not official NWS values.
T = Trace of Precipitation, MM = Missing Value Source: NWS Daily Summary

Daily Weather History Graph

Daily Weather History Graph

Search for Another Location

Airport:

Trip Planner

Search our weather history database for the weather conditions in past years. The results will help you decide how hot, cold, wet, or windy it might be!

Date:

Astronomy

Jun. 28, 2013 Rise Set
Actual Time 5:25 AM CDT 8:34 PM CDT
Civil Twilight 4:51 AM CDT 9:07 PM CDT
Nautical Twilight 4:08 AM CDT 9:51 PM CDT
Astronomical Twilight 3:16 AM CDT 10:42 PM CDT
Moon 11:58 PM CDT (6/28) 11:37 AM CDT (6/28)
Length of Visible Light 16h 15m
Length of Day
15h 08m
Waning Gibbous, 66% of the Moon is Illuminated
Jun 28
Waning Gibbous
Jun 29
Last Quarter
Jul 8
New
Jul 15
First Quarter
Jul 22
Full

Hourly Weather History & Observations

Time (CDT) Temp. Heat Index Dew Point Humidity Pressure Visibility Wind Dir Wind Speed Gust Speed Precip Events Conditions
12:15 AM 73.0 °F - 60.3 °F 64% 29.78 in 10.0 mi WNW 11.5 mph - N/A   Clear
12:35 AM 72.9 °F - 60.1 °F 64% 29.77 in 10.0 mi WNW 12.7 mph - N/A   Clear
12:55 AM 72.7 °F - 60.1 °F 64% 29.78 in 10.0 mi WNW 10.4 mph - N/A   Clear
1:35 AM 71.6 °F - 60.1 °F 67% 29.76 in 10.0 mi WNW 10.4 mph - N/A   Clear
1:55 AM 70.0 °F - 59.9 °F 70% 29.75 in 10.0 mi WNW 10.4 mph - N/A   Clear
2:15 AM 69.6 °F - 59.9 °F 71% 29.75 in 10.0 mi WNW 10.4 mph - N/A   Clear
2:35 AM 68.9 °F - 59.9 °F 73% 29.75 in 10.0 mi NW 9.2 mph - N/A   Clear
2:55 AM 68.5 °F - 59.5 °F 73% 29.74 in 10.0 mi NW 10.4 mph - N/A   Clear
3:15 AM 68.2 °F - 59.5 °F 74% 29.74 in 10.0 mi NW 9.2 mph - N/A   Clear
3:35 AM 67.3 °F - 59.4 °F 76% 29.74 in 10.0 mi WNW 6.9 mph - N/A   Clear
3:55 AM 65.5 °F - 59.2 °F 80% 29.74 in 10.0 mi West 8.1 mph - N/A   Clear
4:15 AM 64.9 °F - 59.5 °F 83% 29.74 in 10.0 mi WNW 6.9 mph - N/A   Clear
4:35 AM 65.3 °F - 59.4 °F 81% 29.73 in 10.0 mi WNW 8.1 mph - N/A   Clear
4:55 AM 66.7 °F - 59.4 °F 77% 29.73 in 10.0 mi WNW 9.2 mph - N/A   Clear
5:15 AM 66.4 °F - 59.0 °F 77% 29.73 in 10.0 mi WNW 6.9 mph - N/A   Clear
5:35 AM 65.5 °F - 59.2 °F 80% 29.73 in 10.0 mi West 6.9 mph - N/A   Clear
5:55 AM 64.9 °F - 59.5 °F 83% 29.73 in 10.0 mi West 6.9 mph - N/A   Clear
6:15 AM 65.1 °F - 59.7 °F 83% 29.74 in 10.0 mi West 6.9 mph - N/A   Clear
6:35 AM 67.1 °F - 60.4 °F 79% 29.74 in 10.0 mi West 8.1 mph - N/A   Mostly Cloudy
6:55 AM 66.6 °F - 60.8 °F 82% 29.75 in 10.0 mi West 8.1 mph - N/A   Mostly Cloudy
7:55 AM 71.6 °F - 61.9 °F 71% 29.74 in 10.0 mi West 9.2 mph - N/A   Clear
8:15 AM 72.7 °F - 62.1 °F 69% 29.74 in 10.0 mi WNW 9.2 mph 16.1 mph N/A   Clear
8:35 AM 73.2 °F - 62.1 °F 68% 29.74 in 10.0 mi WNW 10.4 mph - N/A   Clear
8:55 AM 74.7 °F - 62.6 °F 66% 29.74 in 10.0 mi NW 13.8 mph - N/A   Clear
9:15 AM 75.4 °F - 61.9 °F 63% 29.74 in 10.0 mi NW 12.7 mph - N/A   Clear
9:35 AM 76.1 °F - 61.3 °F 60% 29.74 in 10.0 mi NW 15.0 mph - N/A   Clear
9:55 AM 76.8 °F - 61.2 °F 58% 29.73 in 10.0 mi NW 11.5 mph - N/A   Clear
10:15 AM 77.4 °F - 60.8 °F 57% 29.73 in 10.0 mi NW 11.5 mph - N/A   Clear
10:35 AM 77.9 °F - 61.3 °F 57% 29.73 in 10.0 mi NW 10.4 mph - N/A   Clear
10:55 AM 78.6 °F - 61.9 °F 56% 29.73 in 10.0 mi NNW 12.7 mph - N/A   Clear
11:15 AM 78.3 °F - 63.0 °F 59% 29.73 in 10.0 mi WNW 13.8 mph 17.3 mph N/A   Scattered Clouds
11:35 AM 80.2 °F 81.8 °F 63.5 °F 57% 29.72 in 10.0 mi NW 13.8 mph - N/A   Scattered Clouds
11:55 AM 80.2 °F 81.3 °F 61.7 °F 53% 29.72 in 10.0 mi WNW 11.5 mph 19.6 mph N/A   Clear
12:15 PM 80.6 °F 81.4 °F 60.4 °F 50% 29.72 in 10.0 mi WNW 18.4 mph 23.0 mph N/A   Scattered Clouds
12:35 PM 81.1 °F 81.4 °F 58.5 °F 46% 29.71 in 10.0 mi WNW 13.8 mph 21.9 mph N/A   Scattered Clouds
12:55 PM 81.3 °F 81.3 °F 57.7 °F 44% 29.71 in 10.0 mi WNW 16.1 mph 27.6 mph N/A   Scattered Clouds
1:15 PM 81.9 °F 81.9 °F 58.8 °F 45% 29.70 in 10.0 mi NW 17.3 mph 21.9 mph N/A   Clear
1:35 PM 81.7 °F 82.0 °F 59.4 °F 47% 29.70 in 10.0 mi WNW 19.6 mph 25.3 mph N/A   Scattered Clouds
1:55 PM 82.2 °F 82.1 °F 58.1 °F 44% 29.69 in 10.0 mi WNW 16.1 mph 23.0 mph N/A   Scattered Clouds
2:15 PM 81.3 °F 81.6 °F 58.8 °F 46% 29.68 in 10.0 mi WNW 16.1 mph 23.0 mph N/A   Scattered Clouds
2:35 PM 80.2 °F 80.8 °F 58.8 °F 48% 29.67 in 10.0 mi WNW 12.7 mph 23.0 mph N/A   Mostly Cloudy
2:55 PM 80.2 °F 81.1 °F 60.8 °F 51% 29.66 in 10.0 mi WNW 15.0 mph - N/A   Scattered Clouds
3:15 PM 80.4 °F 80.9 °F 58.5 °F 47% 29.66 in 10.0 mi WNW 16.1 mph 26.5 mph N/A   Mostly Cloudy
3:35 PM 80.2 °F 80.7 °F 58.3 °F 47% 29.66 in 10.0 mi WNW 16.1 mph 26.5 mph N/A   Mostly Cloudy
3:55 PM 75.2 °F - 61.2 °F 62% 29.65 in 10.0 mi WNW 12.7 mph - N/A   Light Drizzle
4:15 PM 78.3 °F - 61.7 °F 57% 29.65 in 10.0 mi NW 12.7 mph 16.1 mph N/A   Mostly Cloudy
4:35 PM 77.9 °F - 63.0 °F 60% 29.65 in 10.0 mi NW 15.0 mph 20.7 mph N/A   Mostly Cloudy
4:55 PM 76.1 °F - 60.4 °F 58% 29.66 in 10.0 mi NW 15.0 mph 29.9 mph N/A Thunderstorm Overcast
5:15 PM 75.2 °F - 63.5 °F 67% 29.65 in 10.0 mi NW 11.5 mph - N/A   Overcast
5:35 PM 77.0 °F - 63.9 °F 64% 29.65 in 10.0 mi NNW 18.4 mph 21.9 mph N/A   Mostly Cloudy
5:55 PM 76.5 °F - 61.7 °F 60% 29.65 in 10.0 mi NW 17.3 mph 21.9 mph 0.01 in   Mostly Cloudy
6:15 PM 77.7 °F - 61.3 °F 57% 29.65 in 10.0 mi NNW 18.4 mph - N/A   Mostly Cloudy
6:35 PM 77.4 °F - 61.7 °F 58% 29.65 in 10.0 mi NNW 16.1 mph - N/A   Mostly Cloudy
6:55 PM 77.7 °F - 61.7 °F 58% 29.66 in 10.0 mi NNW 16.1 mph 24.2 mph N/A   Mostly Cloudy
7:15 PM 75.6 °F - 61.0 °F 60% 29.66 in 10.0 mi NW 17.3 mph 25.3 mph N/A   Mostly Cloudy
7:35 PM 75.2 °F - 60.8 °F 61% 29.66 in 10.0 mi NW 15.0 mph - N/A   Mostly Cloudy
7:55 PM 75.2 °F - 61.2 °F 62% 29.66 in 10.0 mi NW 15.0 mph 19.6 mph N/A   Overcast
8:15 PM 73.4 °F - 60.8 °F 65% 29.67 in 10.0 mi NW 13.8 mph 18.4 mph N/A   Scattered Clouds
8:35 PM 72.7 °F - 61.0 °F 67% 29.66 in 10.0 mi NW 13.8 mph 19.6 mph N/A   Clear
8:55 PM 72.0 °F - 61.2 °F 69% 29.67 in 10.0 mi NW 13.8 mph - N/A   Scattered Clouds
9:15 PM 71.6 °F - 61.7 °F 71% 29.67 in 10.0 mi NW 13.8 mph - N/A   Mostly Cloudy
9:35 PM 71.6 °F - 61.3 °F 70% 29.66 in 10.0 mi NW 11.5 mph - N/A   Mostly Cloudy
9:55 PM 70.3 °F - 61.7 °F 74% 29.67 in 10.0 mi NW 9.2 mph - N/A   Mostly Cloudy
10:15 PM 69.3 °F - 61.7 °F 77% 29.67 in 10.0 mi NW 9.2 mph - N/A   Scattered Clouds
10:35 PM 68.4 °F - 61.7 °F 79% 29.66 in 10.0 mi NW 6.9 mph - N/A   Clear
10:55 PM 67.5 °F - 61.7 °F 82% 29.66 in 10.0 mi NW 6.9 mph - N/A   Clear
11:15 PM 67.1 °F - 61.7 °F 83% 29.66 in 10.0 mi WNW 5.8 mph - N/A   Scattered Clouds
11:35 PM 67.5 °F - 61.7 °F 82% 29.66 in 10.0 mi WNW 6.9 mph - N/A   Overcast
11:55 PM 68.2 °F - 61.9 °F 80% 29.65 in 10.0 mi NW 8.1 mph - N/A   Overcast